This is the latest recevied weather packets stored in our database for station/object N3FAA. If no packets are shown the sender has not sent any weather packets the latest 10 day(s).
| Time | Temp. | Humidity | Pressure | Rain* | Wind** | Luminosity | Snow |
|---|---|---|---|---|---|---|---|
| 1777609480 | 20° C | 39% | 1009.2 hPa | 0 mm | - | 0 W/m² | - |
| 1777609178 | 20° C | 39% | 1009.1 hPa | 0 mm | - | 0 W/m² | - |
| 1777608875 | 19.44° C | 40% | 1009 hPa | 0 mm | - | 0 W/m² | - |
| 1777608571 | 20° C | 40% | 1009.1 hPa | 0 mm | - | 0 W/m² | - |
| 1777608268 | 20° C | 40% | 1008.9 hPa | 0 mm | - | 0 W/m² | - |
| 1777607966 | 20° C | 40% | 1008.9 hPa | 0 mm | - | 0 W/m² | - |
| 1777607656 | 20° C | 40% | 1008.9 hPa | 0 mm | - | 0 W/m² | - |
| 1777607353 | 20° C | 41% | 1008.8 hPa | 0 mm | - | 0 W/m² | - |
| 1777607049 | 20° C | 41% | 1008.6 hPa | 0 mm | - | 0 W/m² | - |
| 1777606745 | 20° C | 42% | 1008.5 hPa | 0 mm | - | 0 W/m² | - |
| 1777606439 | 20.56° C | 40% | 1008.6 hPa | 0 mm | - | 0 W/m² | - |
| 1777606135 | 20.56° C | 40% | 1008.6 hPa | 0 mm | - | 0 W/m² | - |
| 1777605831 | 20.56° C | 40% | 1008.4 hPa | 0 mm | - | 0 W/m² | - |
| 1777605525 | 20.56° C | 40% | 1008.5 hPa | 0 mm | - | 0 W/m² | - |
| 1777605221 | 21.11° C | 39% | 1008.3 hPa | 0 mm | - | 0 W/m² | - |
| 1777604917 | 21.11° C | 38% | 1008.1 hPa | 0 mm | - | 0 W/m² | - |
| 1777604613 | 21.67° C | 38% | 1008.1 hPa | 0 mm | - | 0 W/m² | - |
| 1777604309 | 21.67° C | 39% | 1007.9 hPa | 0 mm | - | 0 W/m² | - |
| 1777604004 | 21.67° C | 38% | 1008.3 hPa | 0 mm | - | 0 W/m² | - |
| 1777603702 | 21.67° C | 38% | 1008.3 hPa | 0 mm | - | 0 W/m² | - |
| 1777603398 | 22.22° C | 38% | 1007.9 hPa | 0 mm | - | 0 W/m² | - |
| 1777603093 | 22.22° C | 37% | 1007.9 hPa | 0 mm | - | 2 W/m² | - |
| 1777602788 | 22.22° C | 37% | 1008 hPa | 0 mm | - | 6 W/m² | - |
| 1777602484 | 22.78° C | 37% | 1007.9 hPa | 0 mm | - | 10 W/m² | - |
| 1777602180 | 22.78° C | 36% | 1007.9 hPa | 0 mm | - | 13 W/m² | - |
* Rain latest hour (hover to see other rain measurements)
** Current wind speed in m/s (hover to see current wind gust speed)